Flag for Switzerland Weather past 2 weeks in Winterthur, Switzerland

Now
55 °F

Sprinkles. Passing clouds.


Feels Like: 54 °F
Forecast: 46 / 61 °F
Wind: 6 mph from Northwest

Location: Zurich-Kloten

Current Time: Sep 5, 2015 at 2:02:26 AM

Latest Report: Sep 5, 2015 at 1:20 AM


Visibility: N/A

Pressure: 30.04 "Hg

Humidity: 82%

Dew point: 50 °F

Location of WinterthurLocation

Historic Weather in Winterthur — Graph

°F

Winterthur temperature yesterday

Maximum temperature yesterday: 68 °F (at 2:20 PM)
Minimum temperature yesterday: 52 °F (at 6:20 AM)
Average temperature yesterday: 60 °F

Past Weeks' High & Low Weather Summary

 TemperatureHumidityPressure
High91 °F (Aug 30, 3:20 PM)100% (Aug 21, 1:50 AM)30.27 "Hg (Aug 21, 1:50 AM)
Low46 °F (Aug 26, 6:20 AM)24% (Aug 30, 4:20 PM)29.71 "Hg (Aug 24, 7:20 AM)
Average67 °F73%30.03 "Hg
* Reported Aug 21 12:50 AM — Sep 5 12:50 AM, Winterthur, Weather by CustomWeather, © 2015

Note: Actual official high and low records may vary slightly from our data, if they occured in-between our weather recording intervals... More about our weather records

Advertising

Winterthur weather history for previous 24 hours

 ConditionsComfort  
Time TempWeatherWind HumidityBarometerVisibility
12:50 AM
Sat, Sep 5
57 °FSprinkles. Passing clouds.2 mph67%30.04 "HgN/A
12:20 AM57 °FPassing clouds.3 mph67%30.04 "HgN/A
11:20 PM
Fri, Sep 4
59 °FPassing clouds.9 mph63%30.01 "HgN/A
10:50 PM59 °FSprinkles. Passing clouds.5 mph68%30.01 "HgN/A
10:20 PM61 °FPassing clouds.5 mph59%30.01 "HgN/A
9:50 PM61 °FPassing clouds.6 mph59%30.01 "HgN/A
9:20 PM61 °FPassing clouds.7 mph59%30.01 "HgN/A
8:50 PM61 °FPartly sunny.6 mph59%29.98 "HgN/A
8:20 PM61 °FPartly sunny.6 mph59%29.98 "HgN/A
7:50 PM61 °FPartly sunny.6 mph59%29.98 "HgN/A
7:20 PM64 °FPartly sunny.7 mph52%29.98 "HgN/A
6:50 PM66 °FScattered clouds.7 mph49%29.98 "HgN/A
6:20 PM66 °FScattered clouds.7 mph49%29.98 "HgN/A
5:50 PM66 °FScattered clouds.8 mph52%29.98 "HgN/A
5:20 PM66 °FScattered clouds.6 mph52%29.98 "HgN/A
4:50 PM66 °FScattered clouds.7 mph49%29.98 "HgN/A
4:20 PM68 °FScattered clouds.8 mph46%29.98 "HgN/A
3:50 PM66 °FScattered clouds.6 mph49%29.98 "HgN/A
3:20 PM66 °FScattered clouds.6 mph49%30.01 "HgN/A
2:50 PM66 °FScattered clouds.6 mph49%30.01 "HgN/A
2:20 PM68 °FPassing clouds.7 mph46%30.01 "HgN/A
1:50 PM66 °FPassing clouds.8 mph49%30.01 "HgN/A
1:20 PM66 °FPassing clouds.6 mph52%30.04 "HgN/A
12:50 PM66 °FPassing clouds.6 mph49%30.04 "HgN/A
12:20 PM64 °FScattered clouds.8 mph56%30.04 "HgN/A
11:50 AM64 °FScattered clouds.6 mph60%30.04 "HgN/A
11:20 AM63 °FScattered clouds.7 mph68%30.04 "HgN/A
10:50 AM63 °FPassing clouds.6 mph77%30.04 "HgN/A
10:20 AM61 °FPassing clouds.6 mph83%30.04 "HgN/A
9:50 AM61 °FPassing clouds.2 mph88%30.04 "HgN/A
9:20 AM57 °FPassing clouds.2 mph94%30.04 "HgN/A
8:50 AM59 °FPassing clouds.1 mph88%30.04 "HgN/A
8:20 AM55 °FPassing clouds.No wind100%30.04 "Hg5 mi
7:50 AM52 °FFog.No wind100%30.04 "Hg4 mi
7:20 AM52 °FCool.2 mph100%30.04 "Hg2 mi
6:50 AM52 °FSnow. Overcast.1 mph100%30.04 "Hg3 mi
6:20 AM52 °FFog.1 mph100%30.04 "HgN/A
5:50 AM54 °FFog.2 mph100%30.04 "HgN/A
5:20 AM54 °FFog.3 mph100%30.04 "HgN/A
4:50 AM55 °FPassing clouds.3 mph100%30.04 "HgN/A
4:20 AM55 °FPassing clouds.3 mph100%30.04 "HgN/A
3:50 AM55 °FPartly cloudy.No wind100%30.04 "HgN/A
3:20 AM55 °FRain showers. Partly cloudy.7 mph100%30.04 "Hg3 mi
2:50 AM57 °FPassing clouds.3 mph88%30.04 "HgN/A
Weather by CustomWeather, © 2015

See weather overviewHow to use our weather pages